Погода в Елеце

Погода в Елеце : погода сейчас, прогноз погоды и архив. Всё, что Вы хотите узнать о погоде в Елеце!

Хотите узнать прогноз погоды в Елеце? Тогда Вам сюда: Погода в Елеце

Поиск расширенной информации на нашем сайте:

Другие новости

Новости СМИ2

Главная страница сайта

Новости сайта

03.07.2017

Напоминаем, что на нашем специализированном сайте Метеоцентр.Азия вы можете получить высокодетализированные автоматические прогнозы погоды по пунктам России, СНГ и мира в авиационном формате (включающие направление и скорость ветра, видимость, явления погоды, количество и форму облачности, нижнюю и верхнюю границу облачности).


Погода в Елеце - сегодня

Время (UTC), дата Ветер
(°,м/с) 
Видим.   Явления Облачность Т
(°С)
Тd
(°С)
f(%) Тe
(°С)
Pmin
(гПа)
dP
(гПа)
Po
(мм)
O2
(г/м3)
Тmin Tmax R s Состояние
почвы
09 19.04.18 320 (СЗ) 4000 м  слаб. ливневой дождь  10/9 300 м кучево-дожд., средняя 
[Cb calv|Ac und]
+7.5 +6.4 93 +6  999.6  -1.2  735  287           
15 19.04.18 010 (С) 6{12}  4000 м  в посл. час ливневой дождь  10/8 300 м кучево-дожд., средняя 
[Cb calv|Ac und]
+6.8 +5.7 93 +5  1000.6  1.1  735  288    +8.2     
03 20.04.18 050 (СВ) 4{11}  10 км    9/8 600 м средняя, верхняя 
[Sc|Ac As|Ci fib]
+7.3 +4.1 80 +6  1005.7  1.8  739  289  +6.7         
06 20.04.18 020 (С) 6-12  10 км    4/0 верхняя 
[Ci fib]
+8.6 +2.1 64 +7  1007.5  1.8  740  289           
18 20.04.18 340 (С) 2{10}  10 км    9/3 600 м средняя 
[Sc|Ac und]
+11.5 +1.7 51 +12  1013.2  1.3  745  288           
21 20.04.18 280 (З) 10 км    4/0 верхняя 
[Ci fib]
+8.1 +2.1 66 +9  1013.5  745  291           
00 21.04.18 220 (ЮЗ) 10 км    9/0 средняя 
[Ac und]
+5.5 +1.5 75 +5  1012.7  -1  744  294           
03 21.04.18 220 (ЮЗ) 10 км    9/0 средняя, верхняя 
[Ac trans|Ci fib]
+5.5 +0.6 71 +4  1011.3  -1.3  743  293  +4.7        влажная 
06 21.04.18 220 (ЮЗ) 10 км    10/0 средняя 
[Ac As]
+8.8 +2.3 64 +8  1009  -2  742  289           
15 21.04.18 250 (З) 8-15{16}  10 км    1/1 1000 м 
[Cu hum]
+19.6 +4.5 37 +20  995.5  -4.6  732  275    +20.2       
03 22.04.18 290 (З) 3{13}  10 км    3/0 верхняя 
[Ci fib]
+6.8 +0.7 65 +6  996.6  0.7  732  288  +6.7      влажная 
15 22.04.18 270 (З) 2{12}  10 км  в посл. час ливневой дождь{гроза}  9/6 600 м кучево-дожд., средняя 
[Cb calv|Ac trans]
+6.6 +4 83 +6  1001.6  2.1  736  289    +12     
18 22.04.18 020 (С) 10 км  в посл. час ливневой дождь{гроза}  9/8 600 м кучево-дожд., средняя 
[Cb calv|Ac trans]
+5.8 -0.8 63 +4  1005  3.1  738  291           
21 22.04.18 010 (С) 10 км    8/5 600 м средняя 
[Sc|Ac trans]
+2.2 -1.8 75 +2  1007.6  2.3  740  296           
00 23.04.18 340 (С) 10 км    8/3 600 м средняя 
[Sc|Ac trans]
+1.9 -2.8 71 1008.7  741  297           
03 23.04.18 340 (С) 10 км  {ливн. осадки}  9/0 средняя 
[Ac trans]
+0.5 -1.8 85 -1  1010.4  1.7  742  299  +0.1    0.3    влажная 
06 23.04.18 340 (С) 10 км  {ливн. осадки}  6/3 1000 м средняя 
[Cu med, cong|Ac trans]
+3.6 -4.9 54 +2  1011.7  1.5  743  296           
09 23.04.18 350 (С) 4{11}  20000 м    6/6 600 м 
[Cu med, cong]
+5.8 -10.5 30 +4  1012  0.4  744  294           
18 23.04.18 300 (СЗ) 10 км    ясно 
+5.6 -6.8 40 +5  1013.5  745  295           
21 23.04.18 260 (З) 10 км    ясно 
+1.6 -6.6 54 +2  1014.3  0.5  745  299           
00 24.04.18 220 (ЮЗ) н/о    н/о 
-0.9 -5.4 71 1015.5  0.4  746  302           
03 24.04.18 210 (ЮЗ) 4000 м  дымка  ясно 
-1.7 -3.8 86 -1  1015.7  0.8  746  303  -1.9        замёрзшая 
06 24.04.18 240 (ЮЗ) 10 км    3/0 верхняя 
[Ci fib]
+5 -2.9 57 +6  1014.2  -0.9  745  295           
09 24.04.18 260 (З) 10 км    8/3 600 м средняя, верхняя 
[Cu hum|As trans|Ci fib]
+10.6 -10.7 21 +10  1013.6  -0.3  745  290           
12 24.04.18 240 (ЮЗ) 10 км    9/0 средняя, верхняя 
[As trans|Ci fib]
+11.9 -6 28 +12  1013.3  -0.1  745  288           
Время (UTC), дата Ветер
(°,м/с) 
Видим.   Явления Облачность Т
(°С)
Тd
(°С)
f(%) Тe
(°С)
Pmin
(гПа)
dP
(гПа)
Po
(мм)
O2
(г/м3)
Тmin Tmax R s Состояние
почвы

Для получения пояснительной информации подведите курсор к названию столбца.

ПОГОДА в Елеце - архив

Всё, что Вы хотите узнать о погоде в Елеце - удобно и подробно!

Выберите нужную дату (начиная с 1 января 2015* года) и нажмите кнопку "Найти".
Будут отображены архивные сводки погоды по пункту Елец, начиная с указанной даты.


Отображать данные в формате CSV (для использования в таблицах Excel)


Внимание! Наш архив погоды предназначен исключительно для личного некоммерческого использования в познавательных целях. Если Вам необходимы официальные справки о состоянии погоды (для производственных, юридических, коммерческих и т.п. целей), обращайтесь в органы Росгидромета.

*Примечание: данная дата относится к архиву по метеостанциям СССР (Россия, СНГ, Балтия).
Архив по метеостанциям Зарубежной Европы и Азии (кроме Китая) хранится 10 дней, по другим регионам земного шара (Китай, Африка, Америка, Австралия, Океания) - 1 день.

Елец - район местоположения метеостанции


Название, широта, долгота, высота метеостанции:
Елец 52.6°ш. 38.5°д. 168 м над ур. моря [Российская Федерация]

Дополнительная информация

В oтличие oт бoльшинства пoгoдных сайтoв мы публикуем пoдрoбную метеoинфoрмацию в детальнoм прoфессиoнальнoм фoрмате.

Характеристики температуры и влажнoсти вoздуха измеряются на высoте 2 м в тени вдали oт зданий и деревьев.
Скoрoсть ветра измеряется на высoте 10 м (на урoвне рoста челoвека скoрoсть ветра ниже в 1.5-2 раза). Если метеoстанция нахoдится в гoрoде или в лесу, тo скoрoсть ветра занижена на 2-4 м/с пo сравнению с oткрытым местoм. Скoрoсть ветра над акватoриями крупных рек и oзёр, а также на вершинах хoлмoв на 2-5 м/с выше, чем в oбычных услoвиях.
Атмoсфернoе давление в разных тoчках местнoсти мoжет значительнo oтличаться oт давления на метеoстанции, в зависимoсти oт услoвий рельефа (при пoдъёме на 10 м давление пoнижается примернo на 1 мм рт.ст.).